User: anonymous   Login
Location: Unspecified
(0.0000°N, 0.0000°E)
Time: 19:07:46
(UTC+00:00)
Language:

STARLINK-34480 - Orbit

View from above orbital plane
View from above orbital plane
View from above satellite
View from above satellite

Ground track
Ground track

The orbit is defined by the following mean orbital elements,

1 64427U          26145.55629641 +.00000000 +00000-0 +29892-3 0 00005
2 64427  70.0006 240.5412 0003310 268.9175  91.1605 14.98341615    05
Epoch (UTC): 25 May 2026 13:21:04
Eccentricity: 0.0003310
inclination: 70.0006°
perigee height: 570 km
apogee height: 574 km
right ascension of ascending node: 240.5412°
argument of perigee: 268.9175°
revolutions per day: 14.98341615
mean anomaly at epoch: 91.1605°

The dashed part of the orbit path shows where the satellite is in the earth's shadow,  

DLR